Regional Weather Roundup
Issued by NWS Kansas City/Pleasant Hill, MO

Home | Current Version | Previous Version | Graphics & Text | Print | Product List | Glossary Off
Versions: 1 2 3 4 5 6 7 8 9 10 11 12 13 14 15 16 17 18 19 20 21 22 23 24 25 26 27

000
ASUS43 KEAX 180510
RWREAX

WEATHER ROUNDUP FOR EASTERN KANSAS AND NORTHWEST MISSOURI
NATIONAL WEATHER SERVICE KANSAS CITY/PLEASANT HILL MO
1200 AM CDT WED OCT 18 2017

KSZ040-057-103>105-MOZ028-029-037-043-180600-
...KANSAS CITY METROPOLITAN AREA...

CITY           SKY/WX    TMP DP  RH WIND       PRES   REMARKS
K.C. INTL      CLEAR     56  47  71 S12       30.09S
K.C. DOWNTOWN  CLEAR     58  47  66 S7        30.10S
LEES SUMMIT    CLEAR     57  47  69 S12       30.11F
OLATHE - IXD   CLEAR     54  46  74 S10       30.11S
OLATHE - OJC   CLEAR     56  48  74 S8        30.11S
LAWRENCE       CLEAR     57  47  69 S8        30.09S

$$

MOZ001>008-011>017-020>025-030>033-038>040-044>046-053-054-180600-
...NORTHERN AND CENTRAL MISSOURI...

CITY           SKY/WX    TMP DP  RH WIND       PRES   REMARKS
ST. JOSEPH     CLEAR     58  48  69 S7        30.07F
MOSBY          CLEAR     50  45  81 CALM      30.10S
WARRENSBURG    CLEAR     52  45  76 S6        30.12F
WHITEMAN AFB   CLEAR     51  45  80 S8        30.09S
CLINTON        CLEAR     54  45  71 S7        30.14S HAZE
SEDALIA        CLEAR     55  45  68 S10       30.14F
WARSAW         NOT AVBL
CHILLICOTHE      N/A     50  46  86 CALM      30.11F
KIRKSVILLE     CLEAR     52  47  83 S7        30.12F

$$

MOZ041-047>049-056>058-063>065-088>090-097-180600-
...EASTERN AND SOUTHERN MISSOURI...

CITY           SKY/WX    TMP DP  RH WIND       PRES   REMARKS
ST. LOUIS INTL CLEAR     56  41  57 S9        30.20F
SPIRIT OF STL  CLEAR     44  42  93 CALM      30.19S
COLUMBIA       CLEAR     51  42  71 S8        30.16S
JEFFERSON CITY CLEAR     50  42  74 SE7       30.16S
ROLLA          CLEAR     50  40  68 S9        30.18F
OSAGE BEACH    CLEAR     52  40  63 S6        30.17F
SPRINGFIELD    CLEAR     52  40  63 S9        30.17S
BRANSON        CLEAR     54  37  54 CALM      30.20F
JOPLIN         CLEAR     53  44  71 SE7       30.16S
WEST PLAINS    CLEAR     52  39  61 S6        30.22F

$$

IAZ060-094-KSZ022-034>040-054-083-096-NEZ052-066-093-180600-
...KANSAS...SOUTHEAST NEBRASKA AND IOWA...

CITY           SKY/WX    TMP DP  RH WIND       PRES   REMARKS
TOPEKA         PTCLDY    58  48  69 S10       30.07S
MANHATTAN      CLEAR     58  46  64 SW10      30.05R
EMPORIA        CLEAR     53  45  74 S10       30.09S
CHANUTE        CLEAR     52  45  77 S8        30.13F
WICHITA        CLEAR     54  46  74 S10       30.08S
OMAHA          CLEAR     53  45  74 SE7       29.99F
LINCOLN        PTCLDY    52  46  80 SE6       30.00S
FALLS CITY     CLEAR     57  47  69 S9        30.03S
LAMONI         CLEAR     54  46  74 S9        30.06F
DES MOINES     CLEAR     54  46  74 S9        30.03F

$$





USA.gov is the U.S. government's official web portal to all federal, state and local government web resources and services.